Flag for Faroe Islands Weather past 2 weeks in Klaksvík, Faroe Islands, Faroe Islands

Now
36 °F

Rain showers. Fog.


Feels Like: 22 °F
Forecast: 39 / 46 °F
Wind: 35 mph from West

Location: Thorshavn

Current Time: Apr 27, 2015 at 10:06:06 AM

Latest Report: Apr 27, 2015 at 9:00 AM


Visibility: 2 mi

Pressure: 29.32 "Hg

Humidity: 86%

Dew point: 32 °F

Location of KlaksvíkLocation

Historic Weather in Klaksvík — Graph

°F

Klaksvík temperature yesterday

Maximum temperature yesterday: 41 °F (at 4:00 PM)
Minimum temperature yesterday: 32 °F (at 6:00 AM)
Average temperature yesterday: 36 °F

Past Weeks' High & Low Weather Summary

 TemperatureHumidityPressure
High51 °F (Apr 18, 11:00 AM)99% (Apr 22, 9:00 AM)30.56 "Hg (Apr 22, 9:00 AM)
Low29 °F (Apr 24, 5:00 AM)49% (Apr 23, 3:00 PM)29.32 "Hg (Apr 27, 8:00 AM)
Average42 °F80%29.97 "Hg
* Reported Apr 12 8:00 AM — Apr 27 8:00 AM, Klaksvík, Weather by CustomWeather, © 2015

Note: Actual official high and low records may vary slightly from our data, if they occured in-between our weather recording intervals... More about our weather records

Advertising

Klaksvík weather history for previous 24 hours

 ConditionsComfort  
Time TempWeatherWind HumidityBarometerVisibility
8:00 AM
Mon, Apr 27
35 °FHeavy rain. Dense fog.28 mph87%29.32 "Hg2 mi
7:00 AM34 °FFog.24 mph87%29.35 "Hg3 mi
6:00 AM34 °FHeavy rain. Overcast.24 mph87%29.35 "Hg2 mi
5:00 AM34 °FDrizzle. Overcast.35 mph86%29.38 "Hg2 mi
4:00 AM35 °FHeavy rain. Overcast.37 mph85%29.38 "Hg1 mi
3:00 AM35 °FSprinkles. Overcast.35 mph83%29.41 "Hg1 mi
2:00 AM35 °FRain showers. Overcast.39 mph77%29.41 "Hg2 mi
1:00 AM36 °FOvercast.33 mph73%29.44 "Hg8 mi
12:00 AM36 °FRain showers. Overcast.30 mph78%29.47 "Hg5 mi
11:00 PM
Sun, Apr 26
36 °FOvercast.25 mph73%29.50 "Hg9 mi
10:00 PM36 °FRain showers. Overcast.22 mph80%29.50 "Hg6 mi
9:00 PM36 °FRain showers. Overcast.21 mph86%29.50 "Hg4 mi
8:00 PM36 °FRain showers. Fog.24 mph89%29.50 "Hg2 mi
7:00 PM36 °FRain showers. Low clouds.17 mph89%29.50 "Hg2 mi
6:00 PM36 °FRain showers. Fog.23 mph87%29.54 "Hg3 mi
5:00 PM40 °FRain showers. Overcast.22 mph76%29.54 "Hg7 mi
4:00 PM41 °FPartly sunny.15 mph78%29.57 "Hg10 mi
3:00 PM37 °FRain showers. Fog.15 mph88%29.58 "Hg4 mi
2:00 PM38 °FLow clouds.15 mph86%29.58 "Hg14 mi
1:00 PM37 °FRain showers. Low clouds.16 mph89%29.60 "Hg9 mi
12:00 PM37 °FSprinkles. Partly sunny.26 mph80%29.60 "Hg2 mi
11:00 AM38 °FRain showers. Overcast.20 mph75%29.62 "Hg12 mi
10:00 AM36 °FRain showers. Overcast.17 mph83%29.66 "Hg14 mi
Weather by CustomWeather, © 2015

See weather overviewHow to use our weather pages